| time (UTC) | temp F | wind direction | speed MPH | gust MPH | rain 1hr in | rain 24hr in | rain mn in | humidity % | barometer mb |
| 20260502211802 | 67 | 286 | 8.0 | 19.0 | 0.00 | 0.00 | 0.00 | 30 | 1018.1 |
| 20260502211535 | 67 | 264 | 11.0 | 19.0 | 0.00 | 0.00 | 0.00 | 33 | 1018.3 |
| 20260502211226 | 68 | 257 | 12.0 | 16.0 | 0.00 | 0.00 | 0.00 | 32 | 1018.2 |
| 20260502210736 | 68 | 232 | 4.0 | 17.0 | 0.00 | 0.00 | 0.00 | 30 | 1018.1 |
| 20260502210248 | 68 | 273 | 9.0 | 17.0 | 0.00 | 0.00 | 0.00 | 31 | 1018.2 |
| 20260502210019 | 68 | 271 | 7.0 | 14.0 | 0.00 | 0.00 | 0.00 | 33 | 1018.5 |
| 20260502205758 | 69 | 355 | 10.0 | 14.0 | 0.00 | 0.00 | 0.00 | 31 | 1018.3 |
| 20260502205245 | 69 | 293 | 7.0 | 13.0 | 0.00 | 0.00 | 0.00 | 32 | 1018.4 |
| 20260502204726 | 69 | 277 | 6.0 | 11.0 | 0.00 | 0.00 | 0.00 | 32 | 1018.5 |
| 20260502204558 | 69 | 259 | 6.0 | 11.0 | 0.00 | 0.00 | 0.00 | 33 | 1018.8 |
| 20260502204501 | 69 | 331 | 7.0 | 11.0 | 0.00 | 0.00 | 0.00 | 34 | 1018.8 |
| 20260502204300 | 69 | 265 | 4.0 | 12.0 | 0.00 | 0.00 | 0.00 | 29 | 1018.6 |
| 20260502203808 | 68 | 266 | 6.0 | 12.0 | 0.00 | 0.00 | 0.00 | 33 | 1018.8 |
| 20260502203230 | 67 | 240 | 4.0 | 11.0 | 0.00 | 0.00 | 0.00 | 34 | 1018.9 |
| 20260502203025 | 67 | 285 | 5.0 | 12.0 | 0.00 | 0.00 | 0.00 | 34 | 1019.2 |
| 20260502202742 | 69 | 325 | 7.0 | 17.0 | 0.00 | 0.00 | 0.00 | 37 | 1018.9 |
| 20260502202225 | 68 | 315 | 11.0 | 17.0 | 0.00 | 0.00 | 0.00 | 31 | 1019.0 |
| 20260502201734 | 68 | 288 | 4.0 | 10.0 | 0.00 | 0.00 | 0.00 | 33 | 1019.2 |
| 20260502201530 | 68 | 207 | 7.0 | 10.0 | 0.00 | 0.00 | 0.00 | 38 | 1019.3 |
| 20260502201307 | 67 | 183 | 4.0 | 12.0 | 0.00 | 0.00 | 0.00 | 34 | 1019.1 |
| 20260502200727 | 66 | 292 | 6.0 | 12.0 | 0.00 | 0.00 | 0.00 | 36 | 1019.3 |
| 20260502200259 | 65 | 157 | 3.0 | 13.0 | 0.00 | 0.00 | 0.00 | 33 | 1019.4 |
| 20260502200045 | 66 | 157 | 5.0 | 17.0 | 0.00 | 0.00 | 0.00 | 30 | 1019.6 |
| 20260502195810 | 67 | 315 | 6.0 | 17.0 | 0.00 | 0.00 | 0.00 | 34 | 1019.5 |
| 20260502195231 | 67 | 276 | 8.0 | 13.0 | 0.00 | 0.00 | 0.00 | 34 | 1019.5 |
| 20260502194740 | 67 | 247 | 6.0 | 10.0 | 0.00 | 0.00 | 0.00 | 39 | 1019.7 |
| 20260502194524 | 66 | 259 | 5.0 | 10.0 | 0.00 | 0.00 | 0.00 | 35 | 1019.9 |
| 20260502194225 | 65 | 254 | 3.0 | 12.0 | 0.00 | 0.00 | 0.00 | 37 | 1019.7 |
| 20260502193735 | 67 | 22 | 6.0 | 12.0 | 0.00 | 0.00 | 0.00 | 32 | 1019.8 |
| 20260502193228 | 66 | 172 | 6.0 | 15.0 | 0.00 | 0.00 | 0.00 | 29 | 1019.9 |
| 20260502193024 | 65 | 242 | 4.0 | 15.0 | 0.00 | 0.00 | 0.00 | 38 | 1020.2 |
| 20260502192801 | 66 | 252 | 9.0 | 15.0 | 0.00 | 0.00 | 0.00 | 36 | 1020.1 |
| 20260502192310 | 66 | 281 | 7.0 | 13.0 | 0.00 | 0.00 | 0.00 | 37 | 1020.0 |
| 20260502191731 | 66 | 269 | 3.0 | 11.0 | 0.00 | 0.00 | 0.00 | 38 | 1020.1 |
| 20260502191600 | 66 | 253 | 5.0 | 14.0 | 0.00 | 0.00 | 0.00 | 38 | 1020.4 |
| 20260502191240 | 66 | 223 | 6.0 | 14.0 | 0.00 | 0.00 | 0.00 | 36 | 1020.2 |
| 20260502190723 | 67 | 312 | 9.0 | 14.0 | 0.00 | 0.00 | 0.00 | 39 | 1020.2 |
| 20260502190234 | 64 | 17 | 3.0 | 13.0 | 0.00 | 0.00 | 0.00 | 36 | 1020.3 |
| 20260502190055 | 64 | 287 | 1.0 | 12.0 | 0.00 | 0.00 | 0.00 | 45 | 1020.7 |
| 20260502185749 | 65 | 5 | 8.0 | 14.0 | 0.00 | 0.00 | 0.00 | 37 | 1020.5 |
| 20260502185230 | 65 | 327 | 5.0 | 16.0 | 0.00 | 0.00 | 0.00 | 40 | 1020.7 |
| 20260502184741 | 65 | 325 | 6.0 | 16.0 | 0.00 | 0.00 | 0.00 | 39 | 1020.8 |
| 20260502184550 | 65 | 281 | 10.0 | 16.0 | 0.00 | 0.00 | 0.00 | 36 | 1021.1 |
| 20260502184227 | 65 | 355 | 9.0 | 15.0 | 0.00 | 0.00 | 0.00 | 35 | 1020.8 |
| 20260502183737 | 65 | 298 | 9.0 | 15.0 | 0.00 | 0.00 | 0.00 | 42 | 1020.9 |
| 20260502183245 | 63 | 288 | 3.0 | 9.0 | 0.00 | 0.00 | 0.00 | 37 | 1021.0 |
| 20260502183052 | 63 | 360 | 3.0 | 9.0 | 0.00 | 0.00 | 0.00 | 37 | 1021.3 |
| 20260502182727 | 64 | 323 | 6.0 | 9.0 | 0.00 | 0.00 | 0.00 | 43 | 1021.0 |
| 20260502182238 | 64 | 338 | 5.0 | 13.0 | 0.00 | 0.00 | 0.00 | 42 | 1021.1 |
| 20260502181722 | 64 | 309 | 8.0 | 16.0 | 0.00 | 0.00 | 0.00 | 38 | 1021.1 |
| 20260502181600 | 64 | 339 | 10.0 | 17.0 | 0.00 | 0.00 | 0.00 | 37 | 1021.5 |
| 20260502181507 | 64 | 292 | 10.0 | 17.0 | 0.00 | 0.00 | 0.00 | 37 | 1021.5 |
| 20260502181235 | 64 | 323 | 7.0 | 17.0 | 0.00 | 0.00 | 0.00 | 40 | 1021.2 |
| 20260502180804 | 63 | 302 | 7.0 | 17.0 | 0.00 | 0.00 | 0.00 | 35 | 1021.2 |
| 20260502180227 | 64 | 267 | 8.0 | 15.0 | 0.00 | 0.00 | 0.00 | 41 | 1021.2 |
| 20260502170226 | 61 | 325 | 3.0 | 10.0 | 0.00 | 0.00 | 0.00 | 43 | 1021.9 |
| 20260502164243 | 61 | 271 | 6.0 | 12.0 | 0.00 | 0.00 | 0.00 | 40 | 1022.1 |
| 20260502163725 | 59 | 263 | 5.0 | 12.0 | 0.00 | 0.00 | 0.00 | 42 | 1022.2 |
| 20260502163236 | 61 | 277 | 8.0 | 14.0 | 0.00 | 0.00 | 0.00 | 41 | 1022.3 |
| 20260502163035 | 60 | 294 | 6.0 | 14.0 | 0.00 | 0.00 | 0.00 | 41 | 1022.6 |
| 20260502162721 | 59 | 296 | 8.0 | 14.0 | 0.00 | 0.00 | 0.00 | 35 | 1022.2 |
| 20260502162233 | 59 | 273 | 8.0 | 15.0 | 0.00 | 0.00 | 0.00 | 43 | 1022.3 |
| 20260502161745 | 59 | 276 | 11.0 | 15.0 | 0.00 | 0.00 | 0.00 | 39 | 1022.4 |
| 20260502161541 | 59 | 275 | 5.0 | 15.0 | 0.00 | 0.00 | 0.00 | 45 | 1022.7 |
| 20260502161229 | 59 | 236 | 8.0 | 16.0 | 0.00 | 0.00 | 0.00 | 39 | 1022.5 |
| 20260502160739 | 59 | 315 | 9.0 | 16.0 | 0.00 | 0.00 | 0.00 | 41 | 1022.4 |
| 20260502160222 | 58 | 234 | 6.0 | 12.0 | 0.00 | 0.00 | 0.00 | 42 | 1022.5 |
| 20260502152247 | 56 | 244 | 7.0 | 11.0 | 0.00 | 0.00 | 0.00 | 43 | 1022.6 |
| 20260502151730 | 56 | 211 | 6.0 | 11.0 | 0.00 | 0.00 | 0.00 | 42 | 1022.6 |
| 20260502151609 | 56 | 219 | 5.0 | 11.0 | 0.00 | 0.00 | 0.00 | 44 | 1022.9 |
| 20260502151502 | 56 | 244 | 6.0 | 11.0 | 0.00 | 0.00 | 0.00 | 44 | 1023.0 |
| 20260502151246 | 56 | 239 | 7.0 | 12.0 | 0.00 | 0.00 | 0.00 | 47 | 1022.5 |
| 20260502150728 | 55 | 291 | 8.0 | 11.0 | 0.00 | 0.00 | 0.00 | 43 | 1022.5 |
| 20260502150239 | 56 | 214 | 7.0 | 10.0 | 0.00 | 0.00 | 0.00 | 45 | 1022.5 |
| 20260502130746 | 41 | 227 | 0.0 | 2.0 | 0.00 | 0.00 | 0.00 | 75 | 1022.7 |
| 20260502130232 | 40 | 227 | 1.0 | 3.0 | 0.00 | 0.00 | 0.00 | 74 | 1022.7 |
| 20260502123732 | 37 | 227 | 1.0 | 3.0 | 0.00 | 0.00 | 0.00 | 75 | 1022.6 |
| 20260502123243 | 37 | 227 | 2.0 | 3.0 | 0.00 | 0.00 | 0.00 | 75 | 1022.6 |
| 20260502123025 | 36 | 227 | 1.0 | 3.0 | 0.00 | 0.00 | 0.00 | 75 | 1023.0 |
| 20260502122726 | 37 | 227 | 2.0 | 3.0 | 0.00 | 0.00 | 0.00 | 75 | 1022.6 |
| 20260502122240 | 36 | 227 | 2.0 | 4.0 | 0.00 | 0.00 | 0.00 | 74 | 1022.6 |
| 20260502121751 | 36 | 227 | 3.0 | 4.0 | 0.00 | 0.00 | 0.00 | 74 | 1022.6 |
| 20260502121523 | 36 | 227 | 2.0 | 4.0 | 0.00 | 0.00 | 0.00 | 74 | 1023.0 |
| 20260502121229 | 36 | 227 | 3.0 | 4.0 | 0.00 | 0.00 | 0.00 | 73 | 1022.5 |
| 20260502120801 | 36 | 227 | 2.0 | 3.0 | 0.00 | 0.00 | 0.00 | 73 | 1022.5 |
| 20260502120224 | 36 | 227 | 2.0 | 3.0 | 0.00 | 0.00 | 0.00 | 74 | 1022.4 |
| 20260502115732 | 35 | 227 | 2.0 | 3.0 | 0.00 | 0.00 | 0.00 | 76 | 1022.3 |
| 20260502115244 | 35 | 227 | 2.0 | 4.0 | 0.00 | 0.00 | 0.00 | 76 | 1022.3 |
| 20260502114725 | 35 | 227 | 3.0 | 4.0 | 0.00 | 0.00 | 0.00 | 76 | 1022.3 |
| 20260502114509 | 34 | 227 | 2.0 | 3.0 | 0.00 | 0.00 | 0.00 | 76 | 1022.7 |
| 20260502114241 | 34 | 224 | 2.0 | 3.0 | 0.00 | 0.00 | 0.00 | 76 | 1022.3 |
| 20260502113724 | 34 | 224 | 3.0 | 4.0 | 0.00 | 0.00 | 0.00 | 76 | 1022.3 |
| 20260502113231 | 35 | 223 | 3.0 | 5.0 | 0.00 | 0.00 | 0.00 | 76 | 1022.2 |
| 20260502113024 | 34 | 223 | 2.0 | 5.0 | 0.00 | 0.00 | 0.00 | 76 | 1022.7 |
| 20260502112742 | 35 | 223 | 3.0 | 6.0 | 0.00 | 0.00 | 0.00 | 75 | 1022.3 |
| 20260502112224 | 35 | 229 | 4.0 | 6.0 | 0.00 | 0.00 | 0.00 | 75 | 1022.2 |
| 20260502111735 | 35 | 222 | 4.0 | 6.0 | 0.00 | 0.00 | 0.00 | 74 | 1022.2 |
| 20260502111532 | 35 | 219 | 4.0 | 5.0 | 0.00 | 0.00 | 0.00 | 74 | 1022.5 |
| 20260502111250 | 35 | 219 | 4.0 | 5.0 | 0.00 | 0.00 | 0.00 | 74 | 1022.0 |
| 20260502110731 | 36 | 219 | 4.0 | 5.0 | 0.00 | 0.00 | 0.00 | 74 | 1022.1 |
| 20260502110303 | 36 | 219 | 4.0 | 5.0 | 0.00 | 0.00 | 0.00 | 74 | 1022.2 |
| 20260502110059 | 35 | 201 | 3.0 | 4.0 | 0.00 | 0.00 | 0.00 | 74 | 1022.5 |
| 20260502110006 | 35 | 201 | 3.0 | 4.0 | 0.00 | 0.00 | 0.00 | 74 | 1022.4 |
| 20260502105721 | 36 | 200 | 3.0 | 4.0 | 0.00 | 0.00 | 0.00 | 75 | 1022.0 |
| 20260502105229 | 36 | 200 | 3.0 | 4.0 | 0.00 | 0.00 | 0.00 | 75 | 1022.0 |
| 20260502104801 | 37 | 200 | 2.0 | 4.0 | 0.00 | 0.00 | 0.00 | 74 | 1022.0 |
| 20260502104537 | 37 | 197 | 3.0 | 4.0 | 0.00 | 0.00 | 0.00 | 73 | 1022.4 |
| 20260502104223 | 37 | 200 | 3.0 | 5.0 | 0.00 | 0.00 | 0.00 | 72 | 1022.1 |
| 20260502103749 | 38 | 271 | 2.0 | 5.0 | 0.00 | 0.00 | 0.00 | 72 | 1022.2 |
| 20260502103233 | 38 | 276 | 3.0 | 5.0 | 0.00 | 0.00 | 0.00 | 71 | 1022.0 |
| 20260502103035 | 37 | 277 | 3.0 | 5.0 | 0.00 | 0.00 | 0.00 | 71 | 1022.4 |
| 20260502102745 | 38 | 300 | 4.0 | 5.0 | 0.00 | 0.00 | 0.00 | 71 | 1022.0 |
| 20260502102252 | 38 | 297 | 4.0 | 5.0 | 0.00 | 0.00 | 0.00 | 71 | 1021.9 |
| 20260502101743 | 38 | 300 | 2.0 | 4.0 | 0.00 | 0.00 | 0.00 | 71 | 1021.9 |
| 20260502101559 | 37 | 300 | 2.0 | 4.0 | 0.00 | 0.00 | 0.00 | 71 | 1022.3 |
| 20260502101230 | 38 | 327 | 3.0 | 4.0 | 0.00 | 0.00 | 0.00 | 71 | 1021.9 |
| 20260502100741 | 38 | 318 | 3.0 | 4.0 | 0.00 | 0.00 | 0.00 | 71 | 1021.8 |
| 20260502100224 | 38 | 324 | 3.0 | 4.0 | 0.00 | 0.00 | 0.00 | 71 | 1021.8 |
| 20260502091245 | 39 | 311 | 4.0 | 5.0 | 0.00 | 0.00 | 0.00 | 71 | 1021.7 |
| 20260502090727 | 39 | 311 | 3.0 | 5.0 | 0.00 | 0.00 | 0.00 | 71 | 1021.6 |
| 20260502090240 | 39 | 306 | 4.0 | 5.0 | 0.00 | 0.00 | 0.00 | 70 | 1021.6 |
| 20260502071534 | 42 | 338 | 3.0 | 4.0 | 0.00 | 0.00 | 0.00 | 56 | 1022.1 |
| 20260502071245 | 42 | 318 | 3.0 | 4.0 | 0.00 | 0.00 | 0.00 | 56 | 1021.8 |
| 20260502070734 | 42 | 318 | 3.0 | 4.0 | 0.00 | 0.00 | 0.00 | 56 | 1021.8 |
| 20260502070247 | 43 | 318 | 3.0 | 3.0 | 0.00 | 0.00 | 0.00 | 55 | 1021.8 |
| 20260502070017 | 42 | 318 | 2.0 | 4.0 | 0.00 | 0.00 | 0.00 | 54 | 1022.1 |
| 20260502065729 | 43 | 318 | 2.0 | 4.0 | 0.00 | 0.00 | 0.00 | 54 | 1021.8 |
| 20260502065300 | 43 | 318 | 2.0 | 4.0 | 0.00 | 0.00 | 0.00 | 54 | 1021.7 |
| 20260502064747 | 43 | 323 | 3.0 | 4.0 | 0.00 | 0.00 | 0.00 | 53 | 1021.8 |
| 20260502064556 | 42 | 323 | 2.0 | 4.0 | 0.00 | 0.00 | 0.00 | 53 | 1022.2 |
| 20260502064233 | 43 | 323 | 3.0 | 4.0 | 0.00 | 0.00 | 0.00 | 53 | 1021.8 |
| 20260502063743 | 43 | 323 | 3.0 | 4.0 | 0.00 | 0.00 | 0.00 | 53 | 1021.8 |
| 20260502063226 | 43 | 355 | 3.0 | 4.0 | 0.00 | 0.00 | 0.00 | 53 | 1021.8 |
| 20260502063006 | 42 | 355 | 2.0 | 3.0 | 0.00 | 0.00 | 0.00 | 53 | 1022.2 |
| 20260502062739 | 43 | 355 | 2.0 | 3.0 | 0.00 | 0.00 | 0.00 | 53 | 1021.8 |
| 20260502062248 | 43 | 355 | 2.0 | 3.0 | 0.00 | 0.00 | 0.00 | 52 | 1021.8 |
| 20260502061731 | 43 | 355 | 2.0 | 3.0 | 0.00 | 0.00 | 0.00 | 52 | 1021.8 |
| 20260502061507 | 42 | 355 | 1.0 | 3.0 | 0.00 | 0.00 | 0.00 | 52 | 1022.2 |
| 20260502061259 | 43 | 355 | 2.0 | 2.0 | 0.00 | 0.00 | 0.00 | 52 | 1021.8 |
| 20260502060749 | 43 | 355 | 2.0 | 2.0 | 0.00 | 0.00 | 0.00 | 51 | 1021.6 |
| 20260502060231 | 43 | 355 | 2.0 | 2.0 | 0.00 | 0.00 | 0.00 | 51 | 1021.6 |
| 20260502060052 | 42 | 355 | 1.0 | 2.0 | 0.00 | 0.00 | 0.00 | 51 | 1022.0 |
| 20260502055744 | 43 | 355 | 2.0 | 2.0 | 0.00 | 0.00 | 0.00 | 51 | 1021.6 |
| 20260502055227 | 43 | 355 | 2.0 | 2.0 | 0.00 | 0.00 | 0.00 | 51 | 1021.6 |
| 20260502054740 | 43 | 355 | 2.0 | 3.0 | 0.00 | 0.00 | 0.00 | 51 | 1021.5 |
| 20260502054559 | 42 | 355 | 1.0 | 3.0 | 0.00 | 0.00 | 0.00 | 51 | 1021.8 |
| 20260502054517 | 42 | 355 | 1.0 | 3.0 | 0.00 | 0.00 | 0.00 | 51 | 1021.8 |
| 20260502054226 | 43 | 355 | 2.0 | 3.0 | 0.00 | 0.00 | 0.00 | 51 | 1021.4 |
| 20260502053736 | 43 | 355 | 3.0 | 4.0 | 0.00 | 0.00 | 0.00 | 51 | 1021.4 |
| 20260502053304 | 43 | 355 | 3.0 | 3.0 | 0.00 | 0.00 | 0.00 | 51 | 1021.4 |
| 20260502053045 | 42 | 355 | 2.0 | 3.0 | 0.00 | 0.00 | 0.00 | 51 | 1021.8 |
| 20260502052727 | 43 | 355 | 3.0 | 3.0 | 0.00 | 0.00 | 0.00 | 51 | 1021.5 |
| 20260502052242 | 43 | 355 | 3.0 | 4.0 | 0.00 | 0.00 | 0.00 | 51 | 1021.4 |
| 20260502051737 | 43 | 355 | 3.0 | 4.0 | 0.00 | 0.00 | 0.00 | 50 | 1021.4 |
| 20260502051521 | 42 | 355 | 2.0 | 4.0 | 0.00 | 0.00 | 0.00 | 50 | 1021.8 |
| 20260502051257 | 43 | 355 | 3.0 | 4.0 | 0.00 | 0.00 | 0.00 | 50 | 1021.4 |
| 20260502050810 | 43 | 355 | 3.0 | 4.0 | 0.00 | 0.00 | 0.00 | 50 | 1021.4 |
| 20260502050243 | 43 | 355 | 3.0 | 4.0 | 0.00 | 0.00 | 0.00 | 49 | 1021.3 |
| 20260502050048 | 43 | 355 | 2.0 | 4.0 | 0.00 | 0.00 | 0.00 | 49 | 1021.7 |
| 20260502045801 | 43 | 355 | 3.0 | 4.0 | 0.00 | 0.00 | 0.00 | 50 | 1021.3 |
| 20260502045319 | 44 | 355 | 3.0 | 4.0 | 0.00 | 0.00 | 0.00 | 49 | 1021.3 |
| 20260502044722 | 44 | 355 | 2.0 | 3.0 | 0.00 | 0.00 | 0.00 | 49 | 1021.2 |
| 20260502044542 | 43 | 355 | 2.0 | 3.0 | 0.00 | 0.00 | 0.00 | 49 | 1021.5 |
| 20260502044235 | 44 | 355 | 2.0 | 3.0 | 0.00 | 0.00 | 0.00 | 49 | 1021.2 |
| 20260502043746 | 44 | 355 | 2.0 | 4.0 | 0.00 | 0.00 | 0.00 | 48 | 1021.2 |
| 20260502043225 | 44 | 355 | 2.0 | 4.0 | 0.00 | 0.00 | 0.00 | 48 | 1021.2 |
| 20260502043052 | 44 | 355 | 2.0 | 4.0 | 0.00 | 0.00 | 0.00 | 48 | 1021.5 |
| 20260502042736 | 45 | 355 | 3.0 | 4.0 | 0.00 | 0.00 | 0.00 | 48 | 1021.2 |
| 20260502042247 | 45 | 355 | 3.0 | 3.0 | 0.00 | 0.00 | 0.00 | 47 | 1021.3 |
| 20260502041739 | 45 | 355 | 3.0 | 4.0 | 0.00 | 0.00 | 0.00 | 47 | 1021.3 |
| 20260502041532 | 44 | 355 | 2.0 | 4.0 | 0.00 | 0.00 | 0.00 | 47 | 1021.6 |
| 20260502041223 | 45 | 355 | 3.0 | 4.0 | 0.00 | 0.00 | 0.00 | 47 | 1021.1 |
| 20260502040733 | 45 | 355 | 3.0 | 4.0 | 0.00 | 0.00 | 0.00 | 47 | 1021.2 |
| 20260502040245 | 45 | 341 | 3.0 | 4.0 | 0.00 | 0.00 | 0.00 | 47 | 1021.2 |
| 20260502040035 | 45 | 336 | 2.0 | 4.0 | 0.00 | 0.00 | 0.00 | 47 | 1021.5 |
| 20260502035724 | 46 | 349 | 3.0 | 4.0 | 0.00 | 0.00 | 0.00 | 46 | 1021.2 |
| 20260502035233 | 46 | 355 | 3.0 | 4.0 | 0.00 | 0.00 | 0.00 | 46 | 1021.2 |
| 20260502034745 | 46 | 355 | 3.0 | 4.0 | 0.00 | 0.00 | 0.00 | 46 | 1021.2 |
| 20260502034544 | 46 | 347 | 3.0 | 4.0 | 0.00 | 0.00 | 0.00 | 46 | 1021.5 |
| 20260502034230 | 46 | 347 | 4.0 | 4.0 | 0.00 | 0.00 | 0.00 | 46 | 1021.2 |
| 20260502033741 | 46 | 350 | 3.0 | 5.0 | 0.00 | 0.00 | 0.00 | 46 | 1021.2 |
| 20260502033226 | 46 | 346 | 3.0 | 5.0 | 0.00 | 0.00 | 0.00 | 46 | 1021.2 |
| 20260502033047 | 46 | 348 | 3.0 | 5.0 | 0.00 | 0.00 | 0.00 | 46 | 1021.5 |
| 20260502032758 | 47 | 344 | 3.0 | 5.0 | 0.00 | 0.00 | 0.00 | 46 | 1021.2 |
| 20260502032250 | 47 | 355 | 3.0 | 5.0 | 0.00 | 0.00 | 0.00 | 45 | 1021.0 |
| 20260502031729 | 47 | 349 | 3.0 | 5.0 | 0.00 | 0.00 | 0.00 | 45 | 1021.1 |
| 20260502031528 | 47 | 348 | 3.0 | 5.0 | 0.00 | 0.00 | 0.00 | 45 | 1021.4 |
| 20260502031243 | 47 | 348 | 4.0 | 5.0 | 0.00 | 0.00 | 0.00 | 45 | 1021.0 |
| 20260502030726 | 47 | 355 | 3.0 | 5.0 | 0.00 | 0.00 | 0.00 | 45 | 1021.0 |
| 20260502030238 | 48 | 350 | 4.0 | 5.0 | 0.00 | 0.00 | 0.00 | 44 | 1021.0 |
| 20260502030033 | 47 | 351 | 4.0 | 5.0 | 0.00 | 0.00 | 0.00 | 44 | 1021.3 |
| 20260502025750 | 48 | 355 | 4.0 | 5.0 | 0.00 | 0.00 | 0.00 | 44 | 1020.9 |
| 20260502025234 | 48 | 5 | 4.0 | 5.0 | 0.00 | 0.00 | 0.00 | 44 | 1020.8 |
| 20260502024747 | 48 | 355 | 4.0 | 5.0 | 0.00 | 0.00 | 0.00 | 44 | 1020.8 |
| 20260502024529 | 48 | 355 | 3.0 | 6.0 | 0.00 | 0.00 | 0.00 | 44 | 1021.1 |
| 20260502024233 | 49 | 355 | 4.0 | 6.0 | 0.00 | 0.00 | 0.00 | 43 | 1020.7 |
| 20260502023740 | 49 | 5 | 4.0 | 6.0 | 0.00 | 0.00 | 0.00 | 43 | 1020.6 |
| 20260502023224 | 49 | 360 | 5.0 | 8.0 | 0.00 | 0.00 | 0.00 | 43 | 1020.6 |
| 20260502023035 | 49 | 360 | 4.0 | 8.0 | 0.00 | 0.00 | 0.00 | 43 | 1020.9 |
| 20260502022735 | 49 | 355 | 5.0 | 9.0 | 0.00 | 0.00 | 0.00 | 43 | 1020.5 |
| 20260502022248 | 49 | 355 | 5.0 | 9.0 | 0.00 | 0.00 | 0.00 | 43 | 1020.5 |
| 20260502021731 | 50 | 360 | 5.0 | 9.0 | 0.00 | 0.00 | 0.00 | 43 | 1020.3 |
| 20260502021541 | 49 | 355 | 5.0 | 9.0 | 0.00 | 0.00 | 0.00 | 43 | 1020.7 |
| 20260502021246 | 50 | 9 | 6.0 | 11.0 | 0.00 | 0.00 | 0.00 | 42 | 1020.3 |
| 20260502020729 | 50 | 346 | 8.0 | 12.0 | 0.00 | 0.00 | 0.00 | 42 | 1020.3 |
| 20260502020240 | 50 | 355 | 9.0 | 12.0 | 0.00 | 0.00 | 0.00 | 42 | 1020.2 |
| 20260502020033 | 50 | 360 | 7.0 | 11.0 | 0.00 | 0.00 | 0.00 | 42 | 1020.6 |
| 20260502015725 | 51 | 355 | 7.0 | 11.0 | 0.00 | 0.00 | 0.00 | 41 | 1020.1 |
| 20260502015235 | 51 | 350 | 5.0 | 10.0 | 0.00 | 0.00 | 0.00 | 41 | 1020.0 |
| 20260502014747 | 51 | 355 | 6.0 | 10.0 | 0.00 | 0.00 | 0.00 | 41 | 1020.0 |
| 20260502014543 | 51 | 18 | 6.0 | 10.0 | 0.00 | 0.00 | 0.00 | 40 | 1020.3 |
| 20260502014232 | 51 | 360 | 6.0 | 10.0 | 0.00 | 0.00 | 0.00 | 40 | 1019.9 |
| 20260502013743 | 52 | 12 | 8.0 | 11.0 | 0.00 | 0.00 | 0.00 | 40 | 1019.8 |
| 20260502013223 | 52 | 22 | 6.0 | 11.0 | 0.00 | 0.00 | 0.00 | 39 | 1019.8 |
| 20260502013049 | 52 | 355 | 7.0 | 11.0 | 0.00 | 0.00 | 0.00 | 39 | 1020.1 |
| 20260502012733 | 52 | 350 | 7.0 | 10.0 | 0.00 | 0.00 | 0.00 | 39 | 1019.7 |
| 20260502012306 | 53 | 360 | 7.0 | 11.0 | 0.00 | 0.00 | 0.00 | 39 | 1019.7 |
| 20260502011722 | 53 | 355 | 8.0 | 13.0 | 0.00 | 0.00 | 0.00 | 38 | 1019.7 |
| 20260502011533 | 52 | 350 | 8.0 | 14.0 | 0.00 | 0.00 | 0.00 | 38 | 1019.9 |
| 20260502011235 | 53 | 355 | 9.0 | 16.0 | 0.00 | 0.00 | 0.00 | 38 | 1019.6 |
| 20260502010745 | 53 | 26 | 10.0 | 16.0 | 0.00 | 0.00 | 0.00 | 37 | 1019.5 |
| 20260502010230 | 54 | 341 | 10.0 | 16.0 | 0.00 | 0.00 | 0.00 | 37 | 1019.5 |
| 20260502010049 | 53 | 333 | 10.0 | 15.0 | 0.00 | 0.00 | 0.00 | 36 | 1019.7 |
| 20260502005740 | 54 | 344 | 12.0 | 15.0 | 0.00 | 0.00 | 0.00 | 36 | 1019.4 |
| 20260502005251 | 54 | 350 | 11.0 | 15.0 | 0.00 | 0.00 | 0.00 | 36 | 1019.4 |
| 20260502004734 | 55 | 10 | 9.0 | 17.0 | 0.00 | 0.00 | 0.00 | 35 | 1019.3 |
| 20260502004555 | 54 | 355 | 8.0 | 17.0 | 0.00 | 0.00 | 0.00 | 36 | 1019.6 |
| 20260502004247 | 55 | 355 | 13.0 | 17.0 | 0.00 | 0.00 | 0.00 | 36 | 1019.3 |
| 20260502003723 | 55 | 345 | 10.0 | 14.0 | 0.00 | 0.00 | 0.00 | 36 | 1019.3 |
| 20260502003234 | 55 | 344 | 7.0 | 18.0 | 0.00 | 0.00 | 0.00 | 35 | 1019.2 |
| 20260502003050 | 55 | 5 | 8.0 | 18.0 | 0.00 | 0.00 | 0.00 | 35 | 1019.5 |
| 20260502002807 | 56 | 341 | 11.0 | 18.0 | 0.00 | 0.00 | 0.00 | 34 | 1019.2 |
| 20260502002228 | 56 | 355 | 12.0 | 17.0 | 0.00 | 0.00 | 0.00 | 34 | 1019.1 |
| 20260502001739 | 56 | 321 | 13.0 | 17.0 | 0.00 | 0.00 | 0.00 | 34 | 1019.1 |
| 20260502001509 | 55 | 346 | 12.0 | 18.0 | 0.00 | 0.00 | 0.00 | 34 | 1019.5 |
| 20260502001227 | 56 | 338 | 12.0 | 24.0 | 0.00 | 0.00 | 0.00 | 34 | 1019.1 |
| 20260502000739 | 56 | 346 | 13.0 | 24.0 | 0.00 | 0.00 | 0.00 | 34 | 1019.1 |
| 20260502000248 | 57 | 355 | 13.0 | 19.0 | 0.00 | 0.00 | 0.00 | 34 | 1019.0 |
| 20260502000003 | 56 | 345 | 12.0 | 19.0 | 0.00 | 0.00 | 0.00 | 34 | 1019.4 |
| 20260501235731 | 57 | 348 | 13.0 | 19.0 | 0.00 | 0.00 | 0.00 | 33 | 1019.0 |
| 20260501235242 | 57 | 340 | 12.0 | 19.0 | 0.00 | 0.00 | 0.00 | 33 | 1019.0 |
| 20260501234728 | 57 | 5 | 14.0 | 19.0 | 0.00 | 0.00 | 0.00 | 33 | 1019.0 |
| 20260501234507 | 57 | 360 | 12.0 | 22.0 | 0.00 | 0.00 | 0.00 | 33 | 1019.4 |
| 20260501234238 | 57 | 327 | 12.0 | 24.0 | 0.00 | 0.00 | 0.00 | 33 | 1019.0 |
| 20260501233748 | 57 | 328 | 14.0 | 24.0 | 0.00 | 0.00 | 0.00 | 33 | 1019.0 |
| 20260501233233 | 57 | 341 | 15.0 | 20.0 | 0.00 | 0.00 | 0.00 | 33 | 1019.0 |
| 20260501233011 | 57 | 355 | 10.0 | 19.0 | 0.00 | 0.00 | 0.00 | 33 | 1019.3 |
| 20260501232747 | 57 | 347 | 11.0 | 21.0 | 0.00 | 0.00 | 0.00 | 33 | 1019.0 |
| 20260501232226 | 57 | 323 | 14.0 | 24.0 | 0.00 | 0.00 | 0.00 | 33 | 1019.0 |
| 20260501231737 | 58 | 342 | 16.0 | 24.0 | 0.00 | 0.00 | 0.00 | 34 | 1018.9 |
| 20260501231522 | 57 | 360 | 15.0 | 20.0 | 0.00 | 0.00 | 0.00 | 33 | 1019.2 |
| 20260501231222 | 57 | 355 | 14.0 | 20.0 | 0.00 | 0.00 | 0.00 | 33 | 1018.9 |
| 20260501230753 | 58 | 329 | 16.0 | 21.0 | 0.00 | 0.00 | 0.00 | 33 | 1018.9 |
| 20260501230245 | 58 | 5 | 15.0 | 23.0 | 0.00 | 0.00 | 0.00 | 33 | 1018.9 |
| 20260501230059 | 57 | 333 | 14.0 | 23.0 | 0.00 | 0.00 | 0.00 | 34 | 1019.2 |
| 20260501225729 | 58 | 350 | 14.0 | 22.0 | 0.00 | 0.00 | 0.00 | 35 | 1018.9 |
| 20260501225238 | 58 | 321 | 12.0 | 17.0 | 0.00 | 0.00 | 0.00 | 35 | 1018.8 |
| 20260501224723 | 58 | 332 | 11.0 | 25.0 | 0.00 | 0.00 | 0.00 | 35 | 1018.8 |
| 20260501224514 | 58 | 5 | 11.0 | 25.0 | 0.00 | 0.00 | 0.00 | 34 | 1019.2 |
| 20260501224233 | 58 | 338 | 12.0 | 25.0 | 0.00 | 0.00 | 0.00 | 33 | 1018.8 |
| 20260501223746 | 59 | 321 | 11.0 | 18.0 | 0.00 | 0.00 | 0.00 | 35 | 1018.8 |
| 20260501223231 | 59 | 349 | 12.0 | 21.0 | 0.00 | 0.00 | 0.00 | 34 | 1018.7 |
| 20260501223011 | 58 | 355 | 14.0 | 21.0 | 0.00 | 0.00 | 0.00 | 34 | 1019.1 |
| 20260501222743 | 59 | 348 | 13.0 | 21.0 | 0.00 | 0.00 | 0.00 | 34 | 1018.8 |
| 20260501222225 | 59 | 5 | 11.0 | 21.0 | 0.00 | 0.00 | 0.00 | 33 | 1018.8 |
| 20260501221737 | 59 | 18 | 13.0 | 22.0 | 0.00 | 0.00 | 0.00 | 32 | 1018.7 |
| 20260501221516 | 59 | 15 | 14.0 | 22.0 | 0.00 | 0.00 | 0.00 | 32 | 1019.1 |
| 20260501221251 | 59 | 347 | 15.0 | 21.0 | 0.00 | 0.00 | 0.00 | 33 | 1018.7 |
| 20260501220739 | 59 | 338 | 9.0 | 17.0 | 0.00 | 0.00 | 0.00 | 35 | 1018.7 |
| 20260501220223 | 60 | 348 | 10.0 | 20.0 | 0.00 | 0.00 | 0.00 | 34 | 1018.7 |
| 20260501220104 | 59 | 331 | 13.0 | 20.0 | 0.00 | 0.00 | 0.00 | 34 | 1019.0 |
| 20260501215735 | 60 | 316 | 11.0 | 20.0 | 0.00 | 0.00 | 0.00 | 33 | 1018.7 |
| 20260501215245 | 59 | 360 | 11.0 | 24.0 | 0.00 | 0.00 | 0.00 | 32 | 1018.7 |
| 20260501214730 | 60 | 332 | 16.0 | 24.0 | 0.00 | 0.00 | 0.00 | 32 | 1018.6 |
| 20260501214512 | 59 | 11 | 13.0 | 22.0 | 0.00 | 0.00 | 0.00 | 33 | 1019.0 |
| 20260501214245 | 60 | 290 | 10.0 | 20.0 | 0.00 | 0.00 | 0.00 | 34 | 1018.7 |
| 20260501213733 | 60 | 306 | 14.0 | 22.0 | 0.00 | 0.00 | 0.00 | 32 | 1018.9 |
| 20260501213243 | 61 | 328 | 13.0 | 16.0 | 0.00 | 0.00 | 0.00 | 33 | 1018.7 |
| 20260501213049 | 60 | 331 | 9.0 | 18.0 | 0.00 | 0.00 | 0.00 | 38 | 1019.0 |
| 20260501212722 | 60 | 5 | 11.0 | 20.0 | 0.00 | 0.00 | 0.00 | 34 | 1018.7 |
| 20260501212234 | 59 | 355 | 12.0 | 22.0 | 0.00 | 0.00 | 0.00 | 37 | 1018.7 |